Temp
9 9 10 11 12 13 13 12 10 12 13 13 12 10 9 11 13 15 18 17 16 14 13 13 12 11 10 8 8 8 8 8 8 8 8 8 11 13 14 14 15 15 15 14
8 10 10 11 12 12 13 14 13 14 14 14 13 11 10 11 13 13 13 13 13 13 12 11 10 8 6 6 6 7 7 7 8 7 6 6 8 10 13 14 14 14 14 14
8 10 10 9 10 11 12 13 13 11 9 11 11 12 10 10 10 10 11 10 9 9 9 8 6 5 4 4 5 6 6 5 5 5 5 5 5 9 13 14 14 14 14 14
8 8 8 10 9 8 9 8 8 9 9 9 9 10 8 8 8 8 9 9 8 8 7 6 4 3 3 3 4 4 4 3 2 2 2 3 4 6 10 13 13 13 13 13
5 7 10 7 7 6 8 7 6 8 8 8 8 9 7 7 7 7 7 7 7 8 7 5 4 3 2 2 2 2 2 1 1 1 1 2 3 4 7 11 12 12 11 11
7 7 7 6 7 9 7 7 5 6 7 6 7 7 6 5 6 6 6 6 7 7 6 5 3 1 1 -0 0 -0 -1 -1 -1 -0 1 2 2 3 6 8 10 9 7 7
7 7 6 5 7 8 7 4 5 5 5 5 5 5 4 6 6 6 6 5 4 4 4 3 1 0 -1 -1 -2 -2 -2 -2 -1 -1 0 1 2 4 6 5 5 4 4 2
5 1 4 4 6 4 4 4 4 4 4 4 4 5 6 5 5 5 3 2 2 1 1 1 -1 -1 -2 -3 -3 -4 -3 -2 -2 -1 -1 0 2 5 5 3 1 0 -0 -1
6 6 4 4 4 3 3 3 3 3 3 3 4 4 4 4 3 2 1 0 -0 -1 -1 -2 -2 -3 -3 -4 -4 -4 -4 -2 -2 -2 -1 -1 1 2 2 1 0 -0 -1 -2
5 5 4 4 3 3 3 3 3 5 4 4 3 3 3 2 1 0 -1 -1 -2 -2 -3 -3 -4 -4 -4 -5 -5 -5 -4 -3 -3 -3 -3 -2 -1 1 1 0 0 -0 -2 -3
5 5 5 4 3 3 3 5 4 5 4 3 2 2 1 0 -1 -2 -2 -3 -3 -3 -4 -4 -5 -5 -5 -6 -6 -5 -4 -4 -4 -4 -4 -4 -4 -3 -1 -0 0 -1 -2 -3
4 4 3 3 3 5 4 4 4 4 3 2 1 1 -0 -1 -2 -3 -4 -4 -4 -5 -5 -6 -5 -5 -6 -6 -6 -6 -5 -4 -5 -5 -5 -5 -5 -5 -4 -2 -1 -2 -3 -4
4 5 3 4 6 6 5 4 3 2 2 1 0 -0 -1 -2 -4 -4 -5 -6 -5 -6 -6 -6 -6 -6 -6 -7 -6 -6 -6 -5 -5 -5 -6 -6 -6 -5 -5 -5 -5 -5 -5 -5
6 6 5 6 4 5 4 3 3 1 1 -0 -1 -2 -2 -3 -4 -5 -5 -6 -5 -6 -6 -6 -6 -6 -5 -6 -7 -7 -6 -6 -6 -7 -6 -7 -7 -6 -6 -6 -5 -6 -6 -6
5 5 4 4 4 3 3 1 0 -0 -1 -2 -3 -3 -4 -3 -4 -5 -5 -6 -6 -6 -6 -6 -6 -6 -6 -6 -7 -7 -7 -7 -7 -8 -8 -8 -7 -7 -6 -6 -6 -6 -6 -6
5 4 3 2 1 1 1 -1 -2 -3 -3 -3 -4 -4 -4 -4 -5 -5 -5 -6 -6 -7 -7 -7 -6 -6 -6 -6 -7 -7 -8 -8 -8 -8 -8 -8 -8 -8 -8 -8 -7 -8 -8 -8
2 1 0 -0 -1 -1 -2 -3 -4 -4 -4 -5 -5 -5 -5 -6 -5 -6 -6 -5 -6 -6 -7 -7 -6 -6 -6 -6 -7 -7 -8 -8 -8 -8 -8 -8 -8 -8 -8 -8 -8 -8 -9 -9
0 -1 -1 -2 -3 -3 -4 -5 -6 -6 -6 -7 -7 -7 -6 -6 -7 -6 -6 -6 -6 -6 -7 -7 -6 -6 -7 -7 -7 -8 -8 -9 -9 -9 -9 -9 -9 -9 -9 -9 -9 -9 -9 -10
-1 -2 -3 -4 -5 -5 -6 -7 -7 -7 -8 -8 -8 -8 -7 -7 -7 -7 -7 -7 -7 -7 -7 -7 -6 -6 -7 -7 -7 -8 -8 -9 -9 -9 -9 -9 -10 -10 -10 -10 -10 -10 -10 -10
-3 -4 -5 -6 -6 -7 -7 -8 -8 -8 -8 -8 -8 -8 -8 -7 -7 -7 -7 -8 -8 -7 -8 -7 -7 -7 -7 -7 -7 -8 -9 -9 -9 -9 -10 -10 -10 -10 -10 -11 -11 -11 -11 -11
-5 -5 -6 -7 -8 -8 -8 -8 -8 -9 -8 -8 -9 -9 -9 -7 -7 -7 -8 -8 -8 -8 -8 -8 -7 -7 -7 -7 -8 -8 -9 -9 -9 -10 -10 -10 -11 -11 -11 -11 -11 -12 -12 -12
-6 -6 -7 -7 -7 -7 -7 -8 -8 -8 -8 -9 -9 -9 -9 -8 -8 -9 -9 -10 -9 -9 -9 -8 -7 -7 -7 -8 -8 -8 -9 -9 -10 -10 -10 -11 -11 -11 -11 -12 -12 -13 -13 -13
-6 -6 -6 -6 -7 -7 -7 -8 -7 -8 -8 -8 -9 -9 -9 -8 -8 -9 -10 -10 -10 -10 -9 -9 -8 -8 -8 -8 -8 -9 -9 -9 -10 -10 -11 -11 -11 -12 -12 -12 -13 -13 -13 -14
-5 -6 -7 -7 -6 -7 -7 -8 -7 -8 -8 -8 -8 -9 -9 -9 -9 -10 -10 -10 -10 -10 -9 -9 -9 -8 -8 -8 -9 -9 -10 -10 -10 -10 -11 -11 -12 -12 -12 -13 -13 -13 -14 -14
-5 -5 -6 -6 -7 -8 -8 -8 -8 -8 -8 -8 -9 -9 -9 -10 -10 -10 -10 -10 -10 -10 -10 -10 -9 -9 -9 -9 -10 -10 -10 -11 -11 -11 -11 -12 -12 -12 -13 -13 -13 -14 -14 -14
-6 -6 -7 -8 -8 -8 -8 -9 -9 -9 -9 -9 -9 -9 -9 -10 -10 -10 -10 -11 -11 -11 -11 -10 -11 -11 -11 -11 -11 -11 -11 -11 -11 -12 -12 -12 -13 -13 -13 -14 -14 -14 -14 -15
-7 -6 -7 -8 -8 -9 -9 -9 -9 -10 -10 -10 -9 -10 -10 -10 -10 -10 -10 -11 -11 -11 -11 -11 -11 -11 -11 -11 -11 -11 -12 -12 -12 -12 -13 -13 -13 -14 -14 -14 -14 -15 -15 -15
Height
774 766 758 750 742 731 733 731 747 728 726 723 729 740 732 729 717 705 696 693 696 702 707 705 705 709 711 711 711 710 706 705 703 701 699 694 688 683 682 682 679 683 688 692
768 756 754 748 741 732 727 721 720 718 720 716 726 735 735 734 723 714 707 709 712 715 714 713 715 716 715 713 711 709 708 707 704 701 697 691 685 680 677 676 676 679 683 687
769 753 753 752 747 739 734 721 722 731 747 733 736 734 739 737 729 724 721 721 723 723 723 723 723 722 719 716 714 712 710 707 703 700 694 687 683 677 672 671 671 674 679 683
771 765 768 752 757 757 753 756 754 748 750 747 744 740 743 743 740 735 732 730 729 728 728 728 725 723 721 718 716 715 711 707 702 698 693 687 681 676 670 665 664 669 674 679
789 770 752 769 769 773 762 763 767 758 753 753 748 740 747 749 747 745 741 738 734 732 731 730 728 726 724 720 718 715 712 706 701 697 692 686 681 675 669 661 660 665 669 675
772 771 769 787 773 761 766 763 775 768 761 761 755 749 754 754 751 749 746 745 742 738 736 733 732 729 727 725 721 715 710 704 699 694 689 683 678 672 666 663 656 661 667 673
775 775 780 789 771 752 761 789 778 775 770 764 759 762 762 758 754 751 749 750 748 747 745 742 736 734 731 726 720 714 708 701 695 691 686 679 672 667 663 662 652 656 664 672
794 817 804 794 780 787 796 790 786 779 775 771 769 766 762 761 762 760 761 757 756 754 751 748 743 736 728 722 717 711 706 699 693 689 684 676 669 662 660 659 661 655 660 672
795 793 800 799 797 797 794 791 786 782 780 777 773 770 770 770 769 767 761 761 760 755 747 743 738 730 725 721 716 710 704 697 691 688 682 675 669 663 663 663 670 650 657 669
795 797 796 799 798 797 793 789 786 781 779 777 775 774 772 772 770 766 764 762 758 752 747 741 734 730 727 721 716 709 703 698 693 689 681 674 669 665 663 665 663 661 656 665
795 795 793 796 798 797 792 787 785 782 781 781 779 778 776 774 773 770 767 762 758 752 747 741 736 733 729 722 716 710 705 700 696 690 685 680 675 669 664 663 659 666 660 656
799 801 801 798 796 792 790 788 787 784 783 783 782 780 778 776 774 771 768 762 757 754 750 744 740 736 732 724 719 714 708 703 699 694 689 686 683 679 671 663 661 667 673 670
799 795 800 797 792 791 790 790 789 788 787 785 783 781 779 777 775 773 769 765 761 758 753 748 744 738 732 727 722 716 711 707 703 699 694 692 689 687 682 678 671 671 681 684
794 792 794 793 794 793 792 792 791 791 790 790 788 786 782 779 777 775 772 769 765 761 756 751 745 740 735 730 725 720 716 712 708 705 701 698 696 695 692 688 683 684 692 691
794 794 795 795 796 796 795 795 794 795 795 793 791 788 785 781 779 777 774 770 766 763 758 753 748 743 737 734 730 725 721 718 714 711 708 706 704 703 701 699 697 694 699 709
796 796 798 799 800 800 799 799 800 799 797 795 793 790 787 784 780 778 774 771 767 764 760 755 751 746 741 737 734 731 728 724 721 719 717 715 714 713 711 710 710 710 711 717
800 802 803 805 806 805 804 804 804 802 799 798 795 792 788 785 782 779 776 773 770 767 763 758 755 750 745 741 738 736 734 732 730 726 725 724 723 723 721 722 722 723 725 727
805 807 808 809 809 808 807 807 806 804 802 800 796 791 788 786 784 780 778 774 771 768 765 761 757 753 749 745 743 741 739 738 736 734 733 733 733 732 730 729 732 735 737 738
808 810 812 812 812 811 811 810 809 806 803 799 796 792 789 787 784 781 779 776 773 770 768 764 761 757 753 751 748 747 745 744 743 743 742 742 741 741 740 740 743 745 746 748
812 814 814 814 814 813 812 811 808 806 803 799 796 793 789 786 784 780 778 778 776 773 770 767 763 760 757 755 754 752 751 750 749 749 750 750 751 751 751 750 752 753 755 758
815 815 816 815 813 812 811 809 807 804 801 799 796 793 790 784 784 782 780 778 777 775 772 769 766 763 761 759 758 757 757 757 757 758 757 757 757 758 759 759 761 763 765 766
815 816 815 813 812 811 810 809 807 804 801 799 796 793 790 788 786 784 783 782 779 777 774 771 769 767 765 764 763 762 762 762 762 763 763 764 765 765 765 766 768 770 773 776
815 815 813 813 813 810 808 808 806 804 801 799 797 795 792 790 788 786 785 784 781 779 777 774 773 771 769 768 768 768 768 768 768 768 769 770 770 770 771 774 776 777 780 782
814 813 813 813 811 810 809 808 805 804 801 799 798 796 794 792 791 789 788 786 784 782 780 778 776 775 773 773 773 772 773 773 773 773 774 775 776 776 778 779 781 783 785 786
814 813 812 812 812 811 810 808 806 805 802 801 799 798 796 794 793 791 790 788 787 786 784 782 780 778 777 777 777 777 777 777 778 778 778 779 781 782 783 784 786 788 790 792
812 813 813 813 813 812 811 809 807 806 804 803 801 800 798 796 794 793 792 791 790 789 788 786 785 784 783 782 781 781 782 782 782 783 783 785 786 786 788 789 790 792 793 795
813 814 814 814 814 813 812 810 809 808 806 805 803 801 800 798 797 796 795 794 793 792 791 790 789 788 788 787 787 786 786 786 787 787 788 789 790 790 791 792 794 796 797 798
Wind_Speed
9 12 14 16 17 10 11 7 5 8 8 5 10 6 14 16 23 19 9 15 13 11 9 12 18 18 17 18 20 22 22 22 22 26 25 29 25 25 24 25 28 31 29 29
8 12 12 12 12 12 7 14 6 8 4 7 8 7 7 11 13 16 18 18 17 15 14 13 18 18 19 22 24 24 21 21 22 24 27 27 27 27 24 26 27 25 24 28
4 7 13 5 6 12 14 6 7 6 10 11 6 11 11 12 15 16 16 16 16 16 15 19 20 20 21 23 25 22 20 21 21 24 28 28 31 30 22 27 28 25 22 21
3 5 2 8 18 11 14 22 19 15 14 11 10 7 11 13 14 16 16 15 13 11 15 17 20 23 24 23 21 21 20 20 23 25 28 28 29 28 24 25 30 27 24 21
1 2 7 17 17 11 11 7 19 12 14 10 14 3 11 13 13 13 14 13 16 18 15 17 18 21 23 21 21 19 20 23 25 25 29 27 27 28 27 24 30 27 24 22
0 2 3 8 17 18 13 2 17 13 12 11 11 5 4 12 12 11 13 15 17 19 19 18 19 20 19 18 19 20 26 26 26 27 27 28 28 29 25 20 33 29 24 20
4 2 4 13 19 16 5 6 16 13 11 8 6 6 8 8 9 13 18 20 23 20 18 18 21 20 15 17 18 25 27 27 26 27 28 28 31 30 19 17 31 30 27 20
3 5 4 13 6 6 4 5 10 9 9 6 8 7 8 12 12 11 13 17 20 16 15 16 18 18 17 19 25 26 27 27 26 27 27 26 25 15 20 21 15 27 31 25
3 2 1 2 1 4 5 5 5 7 8 10 9 11 9 9 9 10 16 16 17 17 17 19 22 23 22 24 26 27 26 24 25 24 22 19 12 4 9 14 12 26 26 24
3 3 8 2 4 6 7 6 8 7 11 11 10 11 10 9 9 11 14 16 18 18 18 20 24 24 23 26 26 25 24 21 21 17 18 18 10 2 7 7 8 12 25 25
2 4 5 8 6 6 7 8 7 8 11 12 11 11 11 10 12 14 17 18 18 19 20 21 23 23 27 27 27 24 22 19 18 14 13 15 21 9 7 6 7 8 14 32
1 4 4 3 4 4 7 9 9 10 11 11 11 10 12 9 14 16 17 20 17 18 18 21 21 22 22 25 23 21 18 16 16 14 14 14 14 18 24 19 15 11 9 18
2 2 1 8 3 6 6 8 8 9 13 11 15 14 14 11 13 16 16 20 16 18 19 20 21 21 21 24 21 19 19 17 15 15 17 16 15 12 18 31 36 36 32 29
3 3 1 5 5 9 10 12 13 15 15 14 13 15 13 8 10 11 14 19 17 19 20 21 22 23 20 22 21 20 20 19 18 18 17 18 19 16 14 16 24 31 33 39
6 8 6 9 11 10 13 13 10 10 11 13 14 14 14 12 9 11 12 16 15 17 21 19 20 23 23 19 18 22 22 18 19 21 23 22 21 19 19 20 24 29 33 32
6 10 10 10 10 10 10 10 8 8 10 13 12 14 14 14 11 15 18 12 17 16 20 21 20 21 20 14 16 20 21 21 19 20 21 22 22 22 23 22 22 23 25 25
6 8 8 7 8 9 9 10 10 10 12 14 16 16 12 13 13 15 17 12 15 18 18 20 19 19 16 16 15 16 17 19 21 22 21 18 18 20 24 25 25 27 28 29
11 12 11 9 8 8 9 12 13 14 13 15 19 19 8 11 11 13 13 12 13 15 20 18 18 17 16 14 14 15 18 19 20 20 21 22 22 23 25 27 26 25 27 32
14 11 11 11 10 9 10 11 12 12 16 17 19 16 12 11 14 13 9 11 14 12 19 17 16 15 15 14 16 17 18 19 20 21 22 22 24 23 24 25 24 25 27 28
11 10 9 9 9 8 8 7 11 11 15 15 16 17 17 16 15 16 7 13 15 14 14 14 14 13 14 13 13 15 18 20 20 20 20 21 21 22 23 26 25 25 25 25
7 6 6 7 7 9 7 5 11 10 15 14 15 16 18 18 5 11 14 8 15 13 11 11 14 11 11 12 14 16 18 19 18 18 18 20 21 21 22 24 24 24 24 26
5 3 3 5 9 11 10 4 10 10 13 13 15 15 17 15 10 10 13 12 12 12 10 13 14 12 11 12 14 16 17 18 19 19 19 19 19 19 20 21 22 23 23 23
4 3 3 6 11 12 9 3 12 9 12 13 9 15 16 11 12 12 8 14 10 8 9 13 13 11 12 14 15 16 17 18 19 19 19 19 20 20 20 20 20 21 21 21
6 7 6 1 6 10 12 14 13 7 13 5 8 10 13 13 11 10 9 7 11 11 15 13 10 12 14 15 16 17 17 17 17 18 19 19 20 20 21 21 21 20 20 20
3 6 5 6 9 10 11 13 13 12 16 9 11 10 10 9 10 8 8 11 9 10 12 12 12 12 13 14 16 17 17 17 17 18 18 18 19 19 19 19 20 20 20 19
4 6 9 11 9 8 9 10 11 12 14 14 10 10 10 9 10 6 9 11 11 11 13 14 14 14 15 16 17 17 17 17 17 17 17 17 16 17 18 19 18 17 16 17
9 8 10 10 10 8 6 8 10 9 11 12 11 11 11 10 10 9 9 8 8 9 11 13 13 12 12 13 14 14 15 15 14 15 15 17 17 17 16 14 13 13 13 15
Wind_Direction
310 308 302 298 299 313 304 263 168 278 287 20 16 358 311 332 312 308 357 27 67 61 60 49 45 45 38 22 10 359 355 346 333 325 321 322 305 292 268 251 203 202 205 213
307 295 282 318 311 325 306 302 248 247 262 101 73 223 230 279 336 35 43 40 39 32 35 39 34 27 20 8 357 353 348 339 330 323 322 325 314 314 271 239 220 199 206 207
262 313 321 316 21 338 333 9 11 39 22 68 109 30 40 19 21 25 24 29 29 19 21 26 24 16 9 1 350 342 340 334 336 329 321 322 322 310 270 224 207 196 190 192
276 305 289 60 24 352 358 31 21 40 24 360 348 27 47 28 20 15 12 14 20 13 13 21 12 7 357 354 347 338 331 335 332 328 320 316 316 305 311 204 190 185 186 194
170 289 265 31 343 329 344 14 13 353 353 352 335 292 44 19 26 21 6 3 359 356 4 12 14 1 357 348 342 335 334 331 329 323 315 310 307 306 313 193 182 177 179 181
247 246 39 339 317 325 314 169 360 330 342 346 1 64 16 12 13 12 5 356 359 357 360 16 11 7 360 345 334 336 328 325 326 319 310 304 301 297 300 213 178 169 163 170
331 324 82 348 333 335 41 321 331 326 341 350 22 24 14 357 12 9 18 10 9 1 3 13 10 360 349 339 338 329 323 323 326 319 309 302 300 294 257 193 159 155 150 150
348 19 357 2 356 44 296 299 314 322 358 22 30 28 22 23 16 16 12 12 5 355 354 356 0 355 353 347 336 330 327 326 328 322 317 314 312 268 211 175 163 134 128 122
336 39 31 329 348 343 304 304 328 347 22 13 25 22 19 13 8 7 12 6 356 354 354 356 357 358 351 342 337 333 331 329 332 328 332 325 315 227 182 178 211 138 131 127
334 47 4 78 55 6 341 333 337 4 17 20 14 21 12 13 3 5 5 358 356 355 354 353 355 353 348 341 339 338 334 335 338 341 353 357 349 226 182 192 185 187 139 134
263 25 347 38 11 337 336 358 360 19 24 24 12 19 7 7 2 1 358 358 2 359 356 350 349 349 351 345 347 343 339 344 349 1 19 24 34 23 130 131 165 238 165 149
312 21 292 320 277 306 8 20 9 26 23 26 24 15 10 13 9 3 359 353 6 359 355 350 348 346 351 354 356 351 347 357 3 14 34 40 40 53 66 98 125 121 127 132
211 176 112 284 356 21 35 27 39 30 28 21 17 11 9 11 11 4 1 357 356 357 350 349 348 349 359 6 8 11 7 10 16 27 39 38 44 56 79 78 88 100 102 104
278 314 184 25 31 26 49 34 35 33 22 23 18 5 358 8 11 15 4 2 3 1 1 360 358 355 4 13 23 29 30 33 36 37 46 50 53 50 65 84 97 97 99 109
350 58 51 48 38 24 36 36 31 22 10 9 10 2 358 350 18 5 358 13 11 8 8 359 2 2 13 18 35 36 32 39 50 56 57 61 62 64 72 81 89 98 105 103
46 50 42 45 31 20 26 32 27 11 5 1 359 358 353 352 7 5 358 34 29 8 7 7 7 11 20 31 44 44 50 60 61 64 65 68 71 71 67 66 73 79 85 91
55 45 38 39 28 16 25 28 17 2 358 357 348 342 349 354 359 7 7 17 30 25 20 18 15 19 29 48 54 51 56 58 63 65 66 67 63 76 79 77 75 75 75 85
68 60 46 48 29 15 17 13 6 355 358 345 342 339 339 3 349 355 11 19 24 19 20 19 23 30 42 52 61 69 68 67 68 66 68 70 73 78 81 82 82 82 83 85
68 62 46 41 30 19 17 360 354 349 350 345 349 343 357 3 349 344 1 30 19 7 8 23 24 38 49 61 74 75 74 75 75 74 76 76 74 76 77 82 84 86 87 87
64 62 52 31 25 16 5 357 347 349 349 350 350 353 347 343 350 358 62 51 26 21 8 20 31 41 57 70 81 90 93 88 82 80 82 79 80 81 82 85 87 87 87 88
73 47 53 24 358 350 325 338 354 350 354 357 356 352 342 346 355 23 33 32 16 12 12 28 33 47 60 81 91 94 96 93 90 89 88 87 88 86 85 88 88 90 91 97
105 90 147 2 348 336 343 332 360 345 354 357 352 4 358 354 25 73 46 23 16 14 23 29 37 53 80 92 97 100 104 105 103 100 96 96 97 96 95 97 98 103 105 109
93 26 24 359 327 347 7 281 355 333 344 349 352 14 11 25 40 42 28 26 16 19 30 38 49 68 90 98 103 107 110 109 109 110 111 111 110 107 106 108 112 115 118 120
360 339 323 6 16 25 23 8 10 20 2 28 29 28 22 23 49 38 36 24 32 45 44 48 61 75 88 96 101 105 107 108 112 115 117 119 118 120 121 123 122 123 126 129
34 50 31 35 50 46 27 12 15 24 24 53 41 35 30 33 38 26 39 47 59 51 52 50 61 79 89 94 97 99 102 105 110 114 116 119 121 123 126 128 129 131 134 135
77 45 62 80 69 49 26 19 22 30 13 13 40 32 27 39 41 44 49 58 61 66 69 73 77 83 88 90 92 97 102 108 111 114 119 123 127 126 125 130 136 139 137 140
103 66 77 65 46 29 32 26 24 29 22 26 47 46 45 50 46 50 61 55 62 67 72 76 82 86 89 93 96 101 104 104 108 112 116 121 126 131 135 138 139 140 141 144